| time (UTC) | temp C | wind direction | speed KPH | gust KPH | rain 1hr cm | rain 24hr cm | rain mn cm | humidity % | barometer mb |
| 20260507072440 | 22 | 158 | 1.6 | 1.6 | 0.00 | 0.00 | 0.00 | 49 | 1012.0 |
| 20260507070939 | 22 | 158 | 1.6 | 1.6 | 0.00 | 0.00 | 0.00 | 49 | 1012.0 |
| 20260507065440 | 22 | 112 | 0.0 | 3.2 | 0.00 | 0.00 | 0.00 | 49 | 1012.0 |
| 20260507042027 | 11 | 292 | 0.0 | 0.0 | 0.00 | 0.00 | 0.00 | 67 | 1011.0 |
| 20260507040528 | 11 | 292 | 0.0 | 0.0 | 0.00 | 0.00 | 0.00 | 67 | 1011.0 |
| 20260507035026 | 11 | 292 | 0.0 | 0.0 | 0.00 | 0.00 | 0.00 | 66 | 1011.0 |
| 20260507033527 | 11 | 22 | 0.0 | 0.0 | 0.00 | 0.00 | 0.00 | 67 | 1011.0 |
| 20260507032028 | 11 | 22 | 0.0 | 0.0 | 0.00 | 0.00 | 0.00 | 66 | 1011.0 |
| 20260507030527 | 11 | 68 | 0.0 | 0.0 | 0.00 | 0.00 | 0.00 | 66 | 1011.0 |
| 20260507025030 | 11 | 68 | 0.0 | 0.0 | 0.00 | 0.00 | 0.00 | 65 | 1011.0 |
| 20260507023527 | 11 | 90 | 0.0 | 0.0 | 0.00 | 0.00 | 0.00 | 63 | 1011.0 |
| 20260507022027 | 11 | 90 | 0.0 | 0.0 | 0.00 | 0.00 | 0.00 | 63 | 1011.0 |
| 20260507020527 | 11 | 225 | 0.0 | 0.0 | 0.00 | 0.00 | 0.00 | 63 | 1011.0 |
| 20260507015028 | 11 | 248 | 0.0 | 0.0 | 0.00 | 0.00 | 0.00 | 62 | 1011.0 |
| 20260507013527 | 11 | 292 | 0.0 | 0.0 | 0.00 | 0.00 | 0.00 | 61 | 1011.0 |
| 20260507012026 | 12 | 292 | 0.0 | 0.0 | 0.00 | 0.00 | 0.00 | 61 | 1011.0 |
| 20260507010526 | 12 | 315 | 0.0 | 0.0 | 0.00 | 0.00 | 0.00 | 59 | 1011.0 |
| 20260507005027 | 12 | 315 | 0.0 | 0.0 | 0.00 | 0.00 | 0.00 | 59 | 1011.0 |
| 20260507003527 | 12 | 0 | 0.0 | 0.0 | 0.00 | 0.00 | 0.00 | 59 | 1011.0 |
| 20260507002026 | 12 | 338 | 0.0 | 0.0 | 0.00 | 0.00 | 0.00 | 59 | 1011.0 |
| 20260507000528 | 13 | 315 | 0.0 | 0.0 | 0.00 | 0.00 | 0.00 | 58 | 1010.0 |
| 20260506235026 | 13 | 0 | 0.0 | 0.0 | 0.00 | 0.00 | 0.00 | 58 | 1011.0 |
| 20260506233527 | 13 | 0 | 0.0 | 0.0 | 0.00 | 0.00 | 0.00 | 58 | 1010.0 |
| 20260506232026 | 13 | 270 | 0.0 | 0.0 | 0.00 | 0.00 | 0.00 | 57 | 1011.0 |
| 20260506230534 | 14 | 22 | 0.0 | 0.0 | 0.00 | 0.00 | 0.00 | 56 | 1010.0 |
| 20260506225026 | 14 | 338 | 0.0 | 0.0 | 0.00 | 0.00 | 0.00 | 55 | 1010.0 |
| 20260506223526 | 14 | 292 | 0.0 | 0.0 | 0.00 | 0.00 | 0.00 | 54 | 1010.0 |
| 20260506222027 | 15 | 292 | 0.0 | 0.0 | 0.00 | 0.00 | 0.00 | 53 | 1010.0 |
| 20260506220528 | 15 | 135 | 0.0 | 0.0 | 0.00 | 0.00 | 0.00 | 52 | 1010.0 |
| 20260506215026 | 15 | 135 | 0.0 | 0.0 | 0.00 | 0.00 | 0.00 | 50 | 1010.0 |
| 20260506213527 | 16 | 135 | 0.0 | 0.0 | 0.00 | 0.00 | 0.00 | 50 | 1010.0 |
| 20260506212027 | 16 | 135 | 0.0 | 0.0 | 0.00 | 0.00 | 0.00 | 48 | 1010.0 |
| 20260506210529 | 16 | 135 | 0.0 | 0.0 | 0.00 | 0.00 | 0.00 | 48 | 1010.0 |
| 20260506205027 | 16 | 112 | 0.0 | 0.0 | 0.00 | 0.00 | 0.00 | 46 | 1010.0 |
| 20260506203527 | 17 | 90 | 0.0 | 0.0 | 0.00 | 0.00 | 0.00 | 47 | 1010.0 |
| 20260506202027 | 17 | 158 | 0.0 | 0.0 | 0.00 | 0.00 | 0.00 | 46 | 1010.0 |
| 20260506200527 | 17 | 135 | 0.0 | 0.0 | 0.00 | 0.00 | 0.00 | 46 | 1010.0 |
| 20260506195027 | 18 | 135 | 0.0 | 0.0 | 0.00 | 0.00 | 0.00 | 45 | 1010.0 |
| 20260506193526 | 18 | 158 | 0.0 | 3.2 | 0.00 | 0.00 | 0.00 | 45 | 1010.0 |
| 20260506192027 | 18 | 135 | 0.0 | 0.0 | 0.00 | 0.00 | 0.00 | 43 | 1010.0 |
| 20260506190526 | 19 | 180 | 0.0 | 0.0 | 0.00 | 0.00 | 0.00 | 42 | 1009.0 |
| 20260506185027 | 20 | 112 | 0.0 | 3.2 | 0.00 | 0.00 | 0.00 | 41 | 1009.0 |
| 20260506183528 | 20 | 180 | 0.0 | 3.2 | 0.00 | 0.00 | 0.00 | 40 | 1009.0 |
| 20260506182026 | 20 | 90 | 0.0 | 4.8 | 0.00 | 0.00 | 0.00 | 39 | 1009.0 |
| 20260506180528 | 21 | 135 | 0.0 | 3.2 | 0.00 | 0.00 | 0.00 | 37 | 1009.0 |
| 20260506175027 | 21 | 180 | 0.0 | 3.2 | 0.00 | 0.00 | 0.00 | 36 | 1009.0 |
| 20260506173526 | 22 | 90 | 0.0 | 6.4 | 0.00 | 0.00 | 0.00 | 35 | 1009.0 |
| 20260506172027 | 22 | 68 | 0.0 | 4.8 | 0.00 | 0.00 | 0.00 | 33 | 1009.0 |
| 20260506170527 | 23 | 158 | 1.6 | 19.3 | 0.00 | 0.00 | 0.00 | 31 | 1008.0 |
| 20260506165026 | 23 | 158 | 6.4 | 6.4 | 0.00 | 0.00 | 0.00 | 30 | 1008.0 |
| 20260506163527 | 24 | 158 | 8.0 | 8.0 | 0.00 | 0.00 | 0.00 | 29 | 1008.0 |
| 20260506162027 | 25 | 180 | 0.0 | 14.5 | 0.00 | 0.00 | 0.00 | 28 | 1008.0 |
| 20260506160527 | 26 | 158 | 9.7 | 9.7 | 0.00 | 0.00 | 0.00 | 27 | 1009.0 |
| 20260506155028 | 26 | 90 | 11.3 | 11.3 | 0.00 | 0.00 | 0.00 | 26 | 1009.0 |
| 20260506153526 | 27 | 135 | 12.9 | 14.5 | 0.00 | 0.00 | 0.00 | 25 | 1009.0 |
| 20260506152030 | 27 | 90 | 6.4 | 6.4 | 0.00 | 0.00 | 0.00 | 24 | 1009.0 |
| 20260506150527 | 27 | 202 | 20.9 | 20.9 | 0.00 | 0.00 | 0.00 | 24 | 1009.0 |
| 20260506145027 | 27 | 180 | 9.7 | 9.7 | 0.00 | 0.00 | 0.00 | 24 | 1009.0 |
| 20260506143526 | 28 | 158 | 9.7 | 9.7 | 0.00 | 0.00 | 0.00 | 23 | 1009.0 |
| 20260506142027 | 28 | 158 | 0.0 | 9.7 | 0.00 | 0.00 | 0.00 | 25 | 1009.0 |
| 20260506140531 | 28 | 112 | 3.2 | 3.2 | 0.00 | 0.00 | 0.00 | 23 | 1009.0 |
| 20260506135026 | 28 | 112 | 9.7 | 17.7 | 0.00 | 0.00 | 0.00 | 23 | 1009.0 |
| 20260506133527 | 29 | 180 | 6.4 | 9.7 | 0.00 | 0.00 | 0.00 | 22 | 1009.0 |
| 20260506132027 | 29 | 90 | 3.2 | 6.4 | 0.00 | 0.00 | 0.00 | 23 | 1009.0 |
| 20260506130527 | 30 | 135 | 4.8 | 12.9 | 0.00 | 0.00 | 0.00 | 22 | 1009.0 |
| 20260506125029 | 30 | 180 | 4.8 | 6.4 | 0.00 | 0.00 | 0.00 | 22 | 1009.0 |
| 20260506123527 | 30 | 90 | 3.2 | 14.5 | 0.00 | 0.00 | 0.00 | 22 | 1009.0 |
| 20260506122027 | 30 | 158 | 4.8 | 9.7 | 0.00 | 0.00 | 0.00 | 22 | 1009.0 |
| 20260506120527 | 30 | 135 | 0.0 | 9.7 | 0.00 | 0.00 | 0.00 | 23 | 1009.0 |
| 20260506115026 | 30 | 135 | 6.4 | 8.0 | 0.00 | 0.00 | 0.00 | 23 | 1009.0 |
| 20260506113527 | 30 | 158 | 1.6 | 3.2 | 0.00 | 0.00 | 0.00 | 23 | 1010.0 |
| 20260506112027 | 30 | 90 | 4.8 | 4.8 | 0.00 | 0.00 | 0.00 | 22 | 1010.0 |
| 20260506110527 | 30 | 135 | 3.2 | 8.0 | 0.00 | 0.00 | 0.00 | 22 | 1010.0 |
| 20260506105026 | 29 | 112 | 4.8 | 9.7 | 0.00 | 0.00 | 0.00 | 23 | 1010.0 |
| 20260506103526 | 29 | 248 | 3.2 | 3.2 | 0.00 | 0.00 | 0.00 | 23 | 1010.0 |
| 20260506102026 | 28 | 112 | 14.5 | 14.5 | 0.00 | 0.00 | 0.00 | 22 | 1010.0 |
| 20260506100526 | 28 | 202 | 3.2 | 9.7 | 0.00 | 0.00 | 0.00 | 23 | 1010.0 |
| 20260506095027 | 28 | 158 | 4.8 | 4.8 | 0.00 | 0.00 | 0.00 | 23 | 1010.0 |
| 20260506093527 | 28 | 112 | 3.2 | 6.4 | 0.00 | 0.00 | 0.00 | 23 | 1010.0 |
| 20260506092025 | 27 | 135 | 8.0 | 12.9 | 0.00 | 0.00 | 0.00 | 23 | 1010.0 |
| 20260506090527 | 27 | 292 | 1.6 | 6.4 | 0.00 | 0.00 | 0.00 | 26 | 1010.0 |
| 20260506085037 | 27 | 158 | 3.2 | 6.4 | 0.00 | 0.00 | 0.00 | 27 | 1010.0 |
| 20260506083527 | 27 | 90 | 1.6 | 3.2 | 0.00 | 0.00 | 0.00 | 29 | 1011.0 |
| 20260506082026 | 26 | 112 | 3.2 | 3.2 | 0.00 | 0.00 | 0.00 | 31 | 1011.0 |
| 20260506080526 | 26 | 135 | 0.0 | 3.2 | 0.00 | 0.00 | 0.00 | 32 | 1011.0 |